DECAYED

SL-4 R/B, 61731 (Decayed)

Orbit data source: Space-Track

SL-4 R/B, 61731 was space debris in LEO originally from a launch on Thu, 31 Oct 2024 UTC launched from the Plesetsk Missile And Space Complex (PKMTR). Debris objects in space refer to the collection of defunct objects orbiting the Earth. Examples of debris include non-operational satellites, rocket bodies, and fragments generated from explosions, collisions, or faulty payload assembly.

Not visible in the next 10 days
Identifier
61731, 2024-197B
Orbit
Decayed
Country
Flag of CISCIS
Related business
Manufacturer
TsSKB-Progress
Mission
Decayed spacecraft
Bus & Motor
BLOK-I, Unknown motor
Mass
~0 kg wet, 2,350 kg dry
Launch date (UTC)
2024-10-31 (1 year ago)
Launch vehicle
Unknown
Launch site
Plesetsk Missile And Space Complex (PKMTR)
Object type
Payload
Rocket body
Debris
Shape & HBR
Cyl, 4.5 m
Radar Cross Section
21.560 m², Large (>1 m²)

Expand to show TLE details & history
Last TLE update: 7 months ago

TLE from 7 months ago
0 SL-4 R/B
1 61731U 24197B   25106.42880142  .17476999  27763-5  26304-3 0  9994
2 61731  97.5274  34.5122 0011029 201.7222 257.6014 16.48060533 26223
Epoch: 2025-04-16T10:17Z
TLE epoch observation values (Epoch: 2025-04-16T10:17:28.442Z)
Latitude
78.19089°
Longitude
-105.7414°
Altitude
159.19 km
Speed
7.817 km/s
True Right ascension
16h 53m 46s
True Declination
78° 06' 56"
Sunlit
Object was in daylight at epoch
Visualization orbit readout
Latitude
Unknown
Longitude
Unknown
Altitude
Unknown
Speed
Unknown
Apparent Right ascension
Unknown
Apparent Declination
Unknown
Sunlit
N/A
Visualization observer readout
Local Sidereal Time
09:18:03
Azimuth
Unknown
Elevation
Unknown
Doppler factor
Unknown
Orbital elements
Apogee altitude
148.441 km
Perigee altitude
134.06 km
Semi-major axis
6,519.388 km
Eccentricity
0.0011
Inclination
97.5274°
RAAN
34.5122°
Arg. of periapsis
201.7222°
True anomaly
257.478°
Mean anomaly
257.6014°
Eccentric anomaly
257.5397°
Mean motion
4.12319 °/min
Orbital period
87.31 mins
BSTAR
0.00026304
Loading maneuver chart data...
Computing Atmospheric mass density...
Loading historical data...
Loading historical data...
Loading historical data...
Loading historical data...
Loading historical data...
Loading historical data...
Loading historical data...
Other satellites on launch #197 in the year 2024 (2024-10-31 UTC)

Documentation

Showing up to 5 results
|